period_start,C,m1,H,J0,J1,J2,J3,J4,J5,JA,JB,JC,JD,JJ,JK,JN,#
2013-08-29 00:00:52,0.05,0.50,0.00,26.04,30.85,33.15,6.07,29.54,1012.31,2036.00,3265.71,3189.12,3443.85,351.16,320.38,23.42,0000 0000 0000 0000 000000
2013-08-29 00:01:52,0.06,0.50,0.00,26.03,30.85,33.15,5.87,29.42,1012.31,2036.00,3265.36,3189.05,3443.80,349.46,318.83,23.43,0000 0000 0000 0000 000000
2013-08-29 00:02:52,0.07,0.50,0.00,26.02,30.85,33.16,5.93,29.38,1012.36,2036.00,3265.13,3189.04,3443.45,350.40,319.87,23.44,0000 0000 0000 0000 000000
2013-08-29 00:03:53,0.07,0.50,0.00,26.02,30.85,33.16,6.03,29.42,1012.36,2036.00,3265.05,3189.01,3443.21,349.81,318.80,23.44,0000 0000 0000 0000 000000
2013-08-29 00:04:53,0.04,0.50,0.00,26.02,30.85,33.20,5.88,29.54,1012.39,2036.00,3265.01,3189.00,3443.08,350.45,319.90,23.45,0000 0000 0000 0000 000000
2013-08-29 00:05:53,0.01,0.50,0.00,26.00,30.85,33.21,5.91,29.46,1012.46,2036.00,3265.00,3189.00,3443.03,349.92,319.33,23.45,0000 0000 0000 0000 000000
2013-08-29 00:06:53,0.00,0.50,0.00,26.01,30.85,33.21,5.83,29.50,1012.39,2036.00,3264.99,3189.00,3443.01,349.63,319.04,23.46,0000 0000 0000 0000 000000
2013-08-29 00:07:54,0.00,0.50,0.00,26.01,30.85,33.22,5.87,29.54,1012.40,2036.00,3264.93,3188.98,3443.00,349.21,319.13,23.47,0000 0000 0000 0000 000000
2013-08-29 00:08:54,0.01,0.50,0.00,26.00,30.85,33.19,5.87,29.58,1012.42,2036.00,3264.65,3188.97,3443.00,350.38,319.74,23.47,0000 0000 0000 0000 000000
2013-08-29 00:09:54,0.04,0.50,0.00,26.00,30.85,33.20,6.03,29.54,1012.36,2036.00,3264.29,3188.85,3442.95,350.44,319.84,23.48,0000 0000 0000 0000 000000
2013-08-29 00:10:55,0.09,0.50,0.00,26.00,30.85,33.21,5.92,29.42,1012.28,2036.00,3264.11,3188.58,3442.82,350.62,319.92,23.48,0000 0000 0000 0000 000000
2013-08-29 00:11:55,0.09,0.50,0.00,26.00,30.85,33.26,5.96,29.54,1012.24,2036.00,3264.04,3188.35,3442.58,350.28,319.50,23.49,0000 0000 0000 0000 000000
2013-08-29 00:12:55,0.08,0.50,0.00,26.01,30.85,33.26,6.04,29.67,1012.25,2036.00,3264.01,3188.17,3442.34,350.24,319.56,23.50,0000 0000 0000 0000 000000
2013-08-29 00:13:55,0.08,0.50,0.00,25.99,30.85,33.24,5.80,29.54,1012.24,2036.00,3263.95,3188.07,3442.15,349.15,318.56,23.50,0000 0000 0000 0000 000000
2013-08-29 00:14:56,0.03,0.50,0.00,25.99,30.85,33.25,6.01,29.58,1012.24,2036.00,3263.73,3188.02,3442.07,349.91,319.27,23.51,0000 0000 0000 0000 000000
2013-08-29 00:15:56,0.05,0.50,0.00,26.00,30.85,33.22,5.98,29.42,1012.24,2036.00,3263.35,3188.00,3442.02,349.17,318.58,23.51,0000 0000 0000 0000 000000
2013-08-29 00:16:56,0.05,0.50,0.00,26.01,30.85,33.23,5.88,29.42,1012.23,2036.00,3263.13,3188.00,3442.00,350.08,319.39,23.52,0000 0000 0000 0000 000000
2013-08-29 00:17:56,0.02,0.50,0.00,26.00,30.85,33.22,5.85,29.38,1012.24,2036.01,3263.05,3188.00,3442.00,349.74,319.10,23.52,0000 0000 0000 0000 000000
2013-08-29 00:18:56,0.02,0.50,0.00,25.98,30.85,33.23,5.93,29.46,1012.23,2036.01,3263.01,3187.99,3441.99,349.60,319.06,23.53,0000 0000 0000 0000 000000
2013-08-29 00:19:57,0.00,0.50,0.00,25.98,30.85,33.24,5.82,29.38,1012.23,2036.01,3263.00,3187.96,3441.95,349.86,319.22,23.54,0000 0000 0000 0000 000000
2013-08-29 00:20:57,0.01,0.50,0.00,25.99,30.85,33.24,5.90,29.54,1012.23,2036.02,3262.98,3187.94,3441.89,350.86,319.82,23.54,0000 0000 0000 0000 000000
2013-08-29 00:21:57,0.03,0.50,0.00,25.97,30.85,33.24,6.01,29.54,1012.22,2036.01,3262.91,3187.87,3441.71,350.37,319.70,23.55,0000 0000 0000 0000 000000
2013-08-29 00:22:57,0.04,0.51,0.00,25.97,30.85,33.24,5.92,29.54,1012.23,2036.00,3262.55,3187.59,3441.36,350.02,319.39,23.55,0000 0000 0000 0000 000000
2013-08-29 00:23:58,0.17,0.51,0.00,25.98,30.85,33.25,6.02,29.50,1012.23,2036.00,3262.21,3187.26,3441.16,350.20,319.53,23.56,0000 0000 0000 0000 000000
2013-08-29 00:24:58,0.13,0.51,0.00,25.98,30.85,33.28,6.09,29.83,1012.22,2036.00,3262.08,3187.09,3441.06,350.47,319.78,23.57,0000 0000 0000 0000 000000
2013-08-29 00:25:58,0.05,0.51,0.00,25.97,30.85,33.27,6.09,29.67,1012.22,2036.00,3262.03,3187.04,3441.02,350.26,319.59,23.57,0000 0000 0000 0000 000000
2013-08-29 00:26:58,0.01,0.51,0.00,25.97,30.85,33.26,5.80,29.46,1012.22,2036.00,3261.98,3187.01,3441.00,349.19,318.63,23.58,0000 0000 0000 0000 000000
2013-08-29 00:27:58,0.01,0.51,0.00,25.98,30.85,33.27,5.88,29.54,1012.22,2036.00,3261.89,3187.00,3440.97,349.84,319.05,23.58,0000 0000 0000 0000 000000
2013-08-29 00:28:58,0.02,0.51,0.00,26.00,30.85,33.24,5.97,29.67,1012.22,2036.00,3261.57,3187.00,3440.91,350.12,319.32,23.59,0000 0000 0000 0000 000000
2013-08-29 00:29:59,0.07,0.51,0.00,25.99,30.85,33.23,5.99,29.54,1012.23,2036.00,3261.22,3186.98,3440.67,350.34,319.66,23.59,0000 0000 0000 0000 000000
2013-08-29 00:30:59,0.08,0.51,0.00,26.00,30.85,33.22,5.78,29.42,1012.22,2036.00,3261.07,3186.92,3440.30,349.22,318.16,23.60,0000 0000 0000 0000 000000
2013-08-29 00:31:59,0.08,0.51,0.00,26.00,30.85,33.22,5.92,29.54,1012.22,2036.00,3261.01,3186.72,3440.11,349.83,319.17,23.61,0000 0000 0000 0000 000000
2013-08-29 00:32:59,0.07,0.51,0.00,26.01,30.85,33.24,5.92,29.63,1012.22,2036.00,3260.96,3186.42,3440.04,350.29,319.42,23.61,0000 0000 0000 0000 000000
2013-08-29 00:33:59,0.07,0.51,0.00,26.02,30.85,33.27,5.93,29.54,1012.22,2036.00,3260.78,3186.20,3440.01,350.20,319.18,23.62,0000 0000 0000 0000 000000
2013-08-29 00:34:59,0.07,0.51,0.00,26.02,30.85,33.21,5.87,29.63,1012.24,2036.00,3260.39,3186.08,3440.00,349.72,319.22,23.62,0000 0000 0000 0000 000000
2013-08-29 00:36:00,0.08,0.51,0.00,26.02,30.85,33.18,6.09,29.75,1012.24,2036.00,3260.14,3186.04,3439.99,350.63,319.46,23.63,0000 0000 0000 0000 000000
2013-08-29 00:37:00,0.03,0.51,0.00,26.02,30.85,33.20,5.97,29.58,1012.22,2036.00,3260.05,3186.01,3439.97,350.54,319.52,23.64,0000 0000 0000 0000 000000
2013-08-29 00:38:00,0.01,0.51,0.00,26.04,30.85,33.19,5.76,29.42,1012.23,2036.00,3260.00,3186.00,3439.90,350.30,319.57,23.64,0000 0000 0000 0000 000000
2013-08-29 00:39:00,0.01,0.51,0.00,26.05,30.85,33.19,5.97,29.67,1012.22,2036.00,3259.95,3185.99,3439.60,350.46,319.70,23.65,0000 0000 0000 0000 000000
2013-08-29 00:40:00,0.05,0.51,0.00,26.05,30.85,33.18,5.85,29.42,1012.22,2036.00,3259.70,3185.97,3439.25,349.34,318.68,23.65,0000 0000 0000 0000 000000
2013-08-29 00:41:01,0.08,0.51,0.00,26.05,30.85,33.18,5.93,30.00,1012.22,2036.00,3259.31,3185.75,3439.09,349.88,319.17,23.66,0000 0000 0000 0000 000000
2013-08-29 00:42:01,0.13,0.51,0.00,26.06,30.85,33.15,5.90,30.04,1012.22,2036.00,3259.11,3185.38,3439.03,349.90,319.17,23.66,0000 0000 0000 0000 000000
2013-08-29 00:43:01,0.11,0.51,0.00,26.08,30.85,33.13,5.85,30.17,1012.22,2036.00,3259.04,3185.20,3439.00,349.02,318.35,23.67,0000 0000 0000 0000 000000
2013-08-29 00:44:01,0.04,0.51,0.00,26.09,30.84,33.11,5.90,30.04,1012.23,2036.00,3258.98,3185.11,3438.98,349.61,318.88,23.68,0000 0000 0000 0000 000000
2013-08-29 00:45:02,0.03,0.51,0.00,26.08,30.84,33.13,6.02,29.63,1012.23,2036.00,3258.91,3185.08,3438.98,350.76,319.94,23.68,0000 0000 0000 0000 000000
2013-08-29 00:46:02,0.00,0.51,0.00,26.09,30.84,33.13,6.01,29.54,1012.22,2036.00,3258.56,3185.03,3438.90,350.38,319.58,23.69,0000 0000 0000 0000 000000
2013-08-29 00:47:02,0.07,0.51,0.00,26.11,30.84,33.12,6.00,29.71,1012.22,2036.00,3258.22,3185.01,3438.57,350.57,319.32,23.69,0000 0000 0000 0000 000000
2013-08-29 00:48:02,0.10,0.52,0.00,26.12,30.84,33.12,5.79,29.58,1012.25,2036.00,3258.08,3185.00,3438.26,349.31,318.58,23.70,0000 0000 0000 0000 000000
2013-08-29 00:49:02,0.05,0.52,0.00,26.12,30.84,33.10,5.99,29.63,1012.24,2036.00,3258.01,3185.00,3438.10,350.28,319.55,23.71,0000 0000 0000 0000 000000
2013-08-29 00:50:03,0.02,0.52,0.00,26.13,30.84,33.06,5.93,29.58,1012.23,2036.00,3257.94,3185.00,3438.03,350.31,319.55,23.71,0000 0000 0000 0000 000000
2013-08-29 00:51:03,0.01,0.52,0.00,26.13,30.84,33.08,5.88,29.58,1012.23,2036.00,3257.65,3184.88,3438.01,350.47,319.63,23.72,0000 0000 0000 0000 000000
2013-08-29 00:52:03,0.09,0.52,0.00,26.14,30.84,33.08,6.04,29.54,1012.25,2036.00,3257.27,3184.54,3437.95,350.77,319.90,23.72,0000 0000 0000 0000 000000
2013-08-29 00:53:03,0.13,0.52,0.00,26.15,30.85,33.08,6.02,29.58,1012.26,2036.00,3257.10,3184.34,3437.93,350.09,319.27,23.73,0000 0000 0000 0000 000000
2013-08-29 00:54:04,0.05,0.52,0.00,26.15,30.85,33.08,5.92,29.54,1012.27,2036.00,3257.03,3184.13,3437.68,349.83,319.03,23.73,0000 0000 0000 0000 000000
2013-08-29 00:55:04,0.08,0.52,0.00,26.15,30.85,33.06,5.93,29.63,1012.29,2036.00,3256.96,3184.05,3437.31,350.43,319.71,23.74,0000 0000 0000 0000 000000
2013-08-29 00:56:04,0.07,0.52,0.00,26.16,30.85,33.03,5.84,29.63,1012.26,2036.00,3256.72,3184.01,3437.12,350.13,319.30,23.75,0000 0000 0000 0000 000000
2013-08-29 00:57:05,0.06,0.52,0.00,26.17,30.85,33.05,5.99,29.54,1012.26,2036.00,3256.32,3184.00,3437.05,349.97,319.20,23.75,0000 0000 0000 0000 000000
2013-08-29 00:58:05,0.06,0.52,0.00,26.18,30.85,33.04,5.96,29.67,1012.26,2036.00,3256.15,3183.98,3437.02,350.11,318.90,23.76,0000 0000 0000 0000 000000
2013-08-29 00:59:05,0.02,0.52,0.00,26.20,30.85,33.04,5.77,29.58,1012.23,2036.00,3256.05,3183.95,3437.00,349.97,319.09,23.76,0000 0000 0000 0000 000000
2013-08-29 01:00:05,0.02,0.52,0.00,26.21,30.85,33.05,5.98,29.71,1012.25,2036.00,3255.95,3183.87,3436.96,350.65,319.71,23.77,0000 0000 0000 0000 000000
2013-08-29 01:01:06,0.04,0.52,0.00,26.21,30.85,33.06,5.95,29.50,1012.31,2036.00,3255.73,3183.66,3436.82,350.46,319.55,23.78,0000 0000 0000 0000 000000
2013-08-29 01:02:06,0.11,0.52,0.00,26.22,30.85,33.05,5.99,29.58,1012.32,2036.00,3255.30,3183.32,3436.43,350.07,319.19,23.78,0000 0000 0000 0000 000000
2013-08-29 01:03:06,0.18,0.52,0.00,26.23,30.85,33.02,5.90,29.67,1012.32,2036.00,3255.11,3183.14,3436.21,349.92,319.04,23.79,0000 0000 0000 0000 000000
2013-08-29 01:04:07,0.07,0.52,0.00,26.23,30.85,33.02,5.99,29.67,1012.31,2036.00,3255.04,3183.05,3436.07,350.21,319.16,23.79,0000 0000 0000 0000 000000
2013-08-29 01:05:07,0.04,0.52,0.00,26.24,30.85,33.03,5.95,29.75,1012.24,2036.00,3254.96,3183.01,3436.03,350.55,319.49,23.80,0000 0000 0000 0000 000000
2013-08-29 01:06:07,0.03,0.52,0.00,26.25,30.85,32.98,5.92,29.54,1012.25,2036.00,3254.65,3183.00,3436.00,350.05,319.12,23.81,0000 0000 0000 0000 000000
2013-08-29 01:07:07,0.05,0.52,0.00,26.24,30.85,32.94,5.93,29.63,1012.23,2036.00,3254.25,3182.99,3435.94,349.82,318.91,23.81,0000 0000 0000 0000 000000
2013-08-29 01:08:07,0.06,0.52,0.00,26.25,30.85,32.92,5.83,29.54,1012.22,2036.00,3254.08,3182.92,3435.82,349.76,318.84,23.82,0000 0000 0000 0000 000000
2013-08-29 01:09:07,0.06,0.52,0.00,26.26,30.85,32.93,6.00,29.50,1012.22,2036.00,3254.03,3182.75,3435.53,350.85,319.83,23.82,0000 0000 0000 0000 000000
2013-08-29 01:10:08,0.09,0.52,0.00,26.27,30.85,32.94,6.07,29.54,1012.23,2036.00,3253.92,3182.45,3435.22,350.77,319.75,23.83,0000 0000 0000 0000 000000
2013-08-29 01:11:08,0.12,0.52,0.00,26.28,30.85,32.94,5.92,29.54,1012.23,2036.00,3253.52,3182.23,3435.08,350.10,318.97,23.83,0000 0000 0000 0000 000000
2013-08-29 01:12:08,0.11,0.53,0.00,26.29,30.85,32.94,5.86,29.63,1012.23,2036.00,3253.20,3182.09,3435.03,349.63,318.48,23.84,0000 0000 0000 0000 000000
2013-08-29 01:13:08,0.07,0.53,0.00,26.30,30.85,32.93,5.90,29.54,1012.24,2036.00,3253.07,3182.03,3435.01,349.76,318.60,23.85,0000 0000 0000 0000 000000
2013-08-29 01:14:08,0.03,0.53,0.00,26.30,30.85,32.94,5.94,29.58,1012.25,2036.00,3252.93,3182.00,3434.92,350.12,319.22,23.85,0000 0000 0000 0000 000000
2013-08-29 01:15:09,0.05,0.53,0.00,26.30,30.85,32.98,5.88,29.42,1012.23,2036.00,3252.53,3181.95,3434.58,349.71,318.75,23.86,0000 0000 0000 0000 000000
2013-08-29 01:16:09,0.11,0.53,0.00,26.31,30.86,32.93,5.92,29.63,1012.24,2036.00,3252.21,3181.86,3434.26,349.94,318.96,23.86,0000 0000 0000 0000 000000
2013-08-29 01:17:09,0.10,0.53,0.00,26.31,30.87,32.92,5.86,29.50,1012.26,2036.00,3252.07,3181.47,3434.10,350.07,319.51,23.87,0000 0000 0000 0000 000000
2013-08-29 01:18:09,0.12,0.53,0.00,26.32,30.87,32.93,6.01,29.71,1012.25,2036.00,3251.95,3181.22,3434.03,349.84,318.98,23.88,0000 0000 0000 0000 000000
2013-08-29 01:19:09,0.08,0.53,0.00,26.33,30.87,32.94,5.86,29.63,1012.24,2036.00,3251.55,3181.09,3434.00,349.46,318.50,23.88,0000 0000 0000 0000 000000
2013-08-29 01:20:10,0.09,0.53,0.00,26.35,30.87,32.95,5.96,29.58,1012.25,2036.00,3251.21,3181.03,3433.96,349.94,318.89,23.89,0000 0000 0000 0000 000000
2013-08-29 01:21:10,0.06,0.53,0.00,26.35,30.87,32.96,5.85,29.54,1012.26,2036.00,3251.07,3181.00,3433.67,349.58,318.58,23.89,0000 0000 0000 0000 000000
2013-08-29 01:22:10,0.06,0.53,0.00,26.35,30.87,32.94,5.98,29.58,1012.30,2036.00,3250.94,3180.96,3433.26,350.01,318.99,23.90,0000 0000 0000 0000 000000
2013-08-29 01:23:10,0.09,0.53,0.00,26.36,30.87,32.95,5.81,29.54,1012.33,2036.00,3250.53,3180.73,3433.10,349.40,318.44,23.90,0000 0000 0000 0000 000000
2013-08-29 01:24:11,0.12,0.53,0.00,26.37,30.87,32.99,5.93,29.83,1012.32,2036.00,3250.20,3180.30,3433.04,350.40,319.19,23.91,0000 0000 0000 0000 000000
2013-08-29 01:25:11,0.15,0.53,0.00,26.38,30.87,33.00,5.82,29.63,1012.29,2036.00,3250.07,3180.13,3433.01,348.80,317.86,23.92,0000 0000 0000 0000 000000
2013-08-29 01:26:11,0.06,0.53,0.00,26.39,30.88,33.01,5.92,29.67,1012.30,2036.00,3249.69,3180.05,3432.75,349.80,318.76,23.92,0000 0000 0000 0000 000000
2013-08-29 01:27:11,0.10,0.53,0.00,26.40,30.87,32.97,6.12,29.50,1012.39,2036.00,3249.28,3180.01,3432.40,351.01,319.88,23.93,0000 0000 0000 0000 000000
2013-08-29 01:28:12,0.09,0.53,0.00,26.40,30.88,32.99,5.96,29.75,1012.43,2036.00,3249.09,3179.99,3432.15,349.94,318.91,23.93,0000 0000 0000 0000 000000
2013-08-29 01:29:12,0.06,0.53,0.00,26.40,30.89,32.97,6.07,29.58,1012.51,2036.00,3248.78,3179.77,3432.05,351.05,319.95,23.94,0000 0000 0000 0000 000000
2013-08-29 01:30:12,0.10,0.53,0.00,26.40,30.89,32.94,6.03,29.71,1012.59,2036.00,3248.29,3179.31,3431.89,350.61,319.58,23.95,0000 0000 0000 0000 000000
2013-08-29 01:31:12,0.19,0.54,0.00,26.41,30.90,32.95,5.81,29.63,1012.58,2036.00,3247.89,3179.11,3431.44,349.76,318.79,23.95,0000 0000 0000 0000 000000
2013-08-29 01:32:13,0.16,0.54,0.00,26.41,30.90,32.97,5.91,29.58,1012.60,2036.00,3247.37,3179.03,3431.16,349.95,318.97,23.96,0000 0000 0000 0000 000000
2013-08-29 01:33:13,0.13,0.54,0.00,26.41,30.90,33.03,5.87,29.75,1012.53,2036.00,3247.00,3178.68,3430.94,350.39,319.46,23.96,0000 0000 0000 0000 000000
2013-08-29 01:34:13,0.14,0.54,0.00,26.41,30.90,33.04,5.87,29.75,1012.43,2036.00,3246.41,3178.26,3430.46,350.55,319.50,23.97,0000 0000 0000 0000 000000
2013-08-29 01:35:13,0.25,0.54,0.00,26.42,30.90,33.01,5.83,29.58,1012.37,2036.00,3246.05,3178.08,3430.17,349.72,318.68,23.97,0000 0000 0000 0000 000000
2013-08-29 01:36:13,0.13,0.54,0.00,26.43,30.90,32.98,5.90,29.63,1012.30,2036.00,3245.45,3177.80,3429.93,349.97,318.87,23.98,0000 0000 0000 0000 000000
2013-08-29 01:37:14,0.17,0.54,0.00,26.44,30.90,32.98,5.93,29.75,1012.24,2036.00,3245.07,3177.36,3429.47,349.91,318.79,23.99,0000 0000 0000 0000 000000
2013-08-29 01:38:14,0.21,0.54,0.00,26.45,30.91,32.99,5.98,29.50,1012.28,2036.00,3244.49,3177.14,3429.17,350.41,319.25,23.99,0000 0000 0000 0000 000000
2013-08-29 01:39:14,0.16,0.54,0.00,26.46,30.92,32.99,5.82,29.83,1012.31,2036.00,3244.11,3177.02,3429.01,349.14,317.98,24.00,0000 0000 0000 0000 000000
2013-08-29 01:40:15,0.10,0.54,0.00,26.45,30.92,32.99,6.03,29.96,1012.28,2036.00,3243.57,3176.75,3428.62,350.16,319.11,24.00,0000 0000 0000 0000 000000
2013-08-29 01:41:15,0.18,0.55,0.00,26.47,30.92,33.03,5.85,29.92,1012.32,2036.00,3243.16,3176.30,3428.22,350.12,319.04,24.01,0000 0000 0000 0000 000000
2013-08-29 01:42:15,0.21,0.55,0.00,26.47,30.92,33.02,5.92,29.92,1012.33,2036.00,3242.57,3176.11,3427.96,350.09,318.95,24.02,0000 0000 0000 0000 000000
2013-08-29 01:43:15,0.15,0.55,0.00,26.47,30.92,33.04,5.93,30.04,1012.30,2036.00,3242.11,3175.86,3427.47,350.38,319.20,24.02,0000 0000 0000 0000 000000
2013-08-29 01:44:16,0.19,0.55,0.00,26.47,30.92,33.07,5.81,29.88,1012.31,2036.00,3241.50,3175.37,3427.17,349.54,318.43,24.03,0000 0000 0000 0000 000000
2013-08-29 01:45:16,0.21,0.55,0.00,26.47,30.92,33.05,5.98,29.67,1012.29,2036.00,3241.11,3175.13,3427.04,349.96,318.81,24.03,0000 0000 0000 0000 000000
2013-08-29 01:46:16,0.13,0.55,0.00,26.48,30.93,33.02,5.98,29.58,1012.27,2036.00,3240.55,3175.02,3426.59,349.76,318.62,24.04,0000 0000 0000 0000 000000
2013-08-29 01:47:16,0.16,0.55,0.00,26.48,30.94,33.05,5.92,29.63,1012.26,2036.00,3240.15,3174.69,3426.21,350.02,318.84,24.05,0000 0000 0000 0000 000000
2013-08-29 01:48:17,0.18,0.55,0.00,26.50,30.95,33.07,5.95,29.58,1012.26,2036.00,3239.57,3174.29,3426.05,349.86,318.26,24.05,0000 0000 0000 0000 000000
2013-08-29 01:49:17,0.18,0.55,0.00,26.51,30.95,33.08,5.98,29.67,1012.23,2035.99,3239.18,3174.09,3425.64,350.94,319.65,24.06,0000 0000 0000 0000 000000
2013-08-29 01:50:17,0.15,0.55,0.00,26.51,30.95,33.09,5.88,29.50,1012.22,2035.98,3238.63,3173.92,3425.24,350.02,318.81,24.06,0000 0000 0000 0000 000000
2013-08-29 01:51:18,0.16,0.56,0.00,26.53,30.95,33.04,5.86,29.75,1012.22,2035.98,3238.20,3173.47,3425.07,350.42,319.03,24.07,0000 0000 0000 0000 000000
2013-08-29 01:52:18,0.18,0.56,0.00,26.52,30.95,33.05,5.76,29.71,1012.22,2035.98,3237.65,3173.17,3424.62,349.33,318.04,24.07,0000 0000 0000 0000 000000
2013-08-29 01:53:18,0.18,0.56,0.00,26.53,30.95,33.05,5.88,29.54,1012.23,2035.99,3237.22,3173.06,3424.23,350.34,318.27,24.08,0000 0000 0000 0000 000000
2013-08-29 01:54:19,0.14,0.56,0.00,26.53,30.96,33.05,5.89,29.54,1012.24,2035.99,3236.75,3172.94,3424.08,349.97,318.74,24.09,0000 0000 0000 0000 000000
2013-08-29 01:55:19,0.12,0.56,0.00,26.55,30.97,33.07,5.94,29.71,1012.25,2035.99,3236.28,3172.52,3423.89,350.58,318.84,24.09,0000 0000 0000 0000 000000
2013-08-29 01:56:19,0.18,0.56,0.00,26.57,30.97,33.10,5.72,29.67,1012.24,2035.98,3235.98,3172.20,3423.42,349.40,318.45,24.10,0000 0000 0000 0000 000000
2013-08-29 01:57:19,0.17,0.56,0.00,26.57,30.97,33.08,5.84,29.58,1012.24,2035.99,3235.45,3172.07,3423.15,350.07,318.72,24.10,0000 0000 0000 0000 000000
2013-08-29 01:58:20,0.12,0.56,0.00,26.57,30.97,33.06,5.88,29.50,1012.24,2035.98,3235.16,3171.97,3423.03,349.51,318.14,24.11,0000 0000 0000 0000 000000
2013-08-29 01:59:20,0.09,0.56,0.00,26.58,30.97,33.05,5.90,29.67,1012.35,2035.96,3234.97,3171.50,3422.68,350.24,318.83,24.12,0000 0000 0000 0000 000000
2013-08-29 02:00:20,0.14,0.56,0.00,26.58,30.97,33.06,5.88,29.54,1012.41,2035.92,3234.46,3171.19,3422.27,349.91,318.69,24.12,0000 0000 0000 0000 000000
2013-08-29 02:01:20,0.16,0.56,0.00,26.58,30.99,33.08,5.67,29.54,1012.35,2035.93,3234.17,3171.07,3422.10,349.14,317.97,24.13,0000 0000 0000 0000 000000
2013-08-29 02:02:21,0.09,0.57,0.00,26.57,31.00,33.08,5.85,29.54,1012.29,2035.94,3234.00,3170.99,3422.01,349.77,318.66,24.13,0000 0000 0000 0000 000000
2013-08-29 02:03:21,0.06,0.57,0.00,26.59,31.00,33.09,5.92,29.58,1012.29,2035.84,3233.50,3170.79,3421.70,350.24,318.95,24.14,0000 0000 0000 0000 000000
2013-08-29 02:04:21,0.06,0.57,0.00,26.59,31.00,33.10,6.04,29.67,1012.35,2035.74,3233.18,3170.41,3421.31,350.35,319.06,24.14,0000 0000 0000 0000 000000
2013-08-29 02:05:21,0.13,0.57,0.00,26.60,31.00,33.10,5.77,29.46,1012.32,2035.76,3233.04,3170.17,3421.12,349.63,318.39,24.15,0000 0000 0000 0000 000000
2013-08-29 02:06:22,0.08,0.57,0.00,26.60,31.00,33.11,5.83,29.58,1012.37,2035.68,3232.60,3170.06,3421.03,349.42,318.22,24.16,0000 0000 0000 0000 000000
2013-08-29 02:07:22,0.06,0.57,0.00,26.61,31.00,33.13,5.85,29.46,1012.39,2035.58,3232.22,3170.01,3420.85,350.07,318.81,24.16,0000 0000 0000 0000 000000
2013-08-29 02:08:22,0.02,0.57,0.00,26.61,31.02,33.14,6.08,29.50,1012.31,2035.52,3232.08,3169.97,3420.61,350.97,319.74,24.17,0000 0000 0000 0000 000000
2013-08-29 02:09:23,0.01,0.57,0.00,26.61,31.02,33.13,6.01,29.58,1012.26,2035.46,3231.86,3169.68,3420.27,350.76,319.27,24.17,0000 0000 0000 0000 000000
2013-08-29 02:10:23,0.11,0.57,0.00,26.62,31.02,33.13,5.94,29.58,1012.27,2035.46,3231.38,3169.31,3420.10,350.09,318.77,24.18,0000 0000 0000 0000 000000
2013-08-29 02:11:23,0.09,0.57,0.00,26.62,31.02,33.13,5.90,29.67,1012.27,2035.29,3231.14,3169.12,3420.01,350.01,318.70,24.19,0000 0000 0000 0000 000000
2013-08-29 02:12:24,-0.03,0.57,0.00,26.63,31.02,33.13,6.02,29.54,1012.26,2035.17,3231.03,3169.04,3419.94,350.65,319.33,24.19,0000 0000 0000 0000 000000
2013-08-29 02:13:24,-0.04,0.57,0.00,26.63,31.02,33.13,6.04,29.50,1012.25,2035.13,3230.61,3168.98,3419.63,350.78,319.37,24.20,0000 0000 0000 0000 000000
2013-08-29 02:14:24,0.08,0.57,0.00,26.64,31.03,33.15,5.89,29.46,1012.26,2035.11,3230.26,3168.89,3419.24,349.60,318.27,24.20,0000 0000 0000 0000 000000
2013-08-29 02:15:24,0.10,0.57,0.00,26.65,31.04,33.12,6.07,29.58,1012.27,2035.12,3230.09,3168.72,3419.10,350.19,319.12,24.21,0000 0000 0000 0000 000000
2013-08-29 02:16:25,0.08,0.57,0.00,26.65,31.05,33.13,6.04,29.79,1012.30,2035.09,3229.91,3168.36,3419.03,350.07,318.67,24.22,0000 0000 0000 0000 000000
2013-08-29 02:17:25,0.08,0.57,0.00,26.64,31.05,33.13,5.86,29.58,1012.27,2035.08,3229.46,3168.14,3418.98,349.93,318.60,24.22,0000 0000 0000 0000 000000
2013-08-29 02:18:25,0.10,0.57,0.00,26.65,31.05,33.15,5.93,29.67,1012.26,2035.08,3229.17,3168.05,3418.74,350.60,319.20,24.23,0000 0000 0000 0000 000000
2013-08-29 02:19:26,0.11,0.57,0.00,26.67,31.05,33.15,5.87,29.46,1012.29,2035.13,3228.97,3168.01,3418.33,350.09,318.72,24.23,0000 0000 0000 0000 000000
2013-08-29 02:20:26,0.12,0.57,0.00,26.67,31.05,33.17,5.98,29.67,1012.24,2035.10,3228.49,3167.87,3418.12,349.87,318.50,24.24,0000 0000 0000 0000 000000
2013-08-29 02:21:26,0.10,0.57,0.00,26.67,31.06,33.16,5.89,29.58,1012.24,2035.04,3228.18,3167.44,3418.04,350.66,319.22,24.24,0000 0000 0000 0000 000000
2013-08-29 02:22:26,0.10,0.57,0.00,26.67,31.07,33.14,5.94,29.88,1012.22,2035.03,3228.05,3167.18,3417.89,349.82,318.44,24.25,0000 0000 0000 0000 000000
2013-08-29 02:23:27,0.08,0.58,0.00,26.68,31.07,33.17,5.88,29.58,1012.23,2035.01,3227.83,3167.07,3417.46,349.80,318.43,24.26,0000 0000 0000 0000 000000
2013-08-29 02:24:27,0.10,0.58,0.00,26.69,31.07,33.17,5.92,29.50,1012.24,2035.00,3227.34,3167.02,3417.19,350.69,319.23,24.26,0000 0000 0000 0000 000000
2013-08-29 02:25:27,0.10,0.58,0.00,26.69,31.07,33.19,5.83,29.50,1012.22,2035.02,3227.11,3166.94,3417.07,349.69,318.32,24.27,0000 0000 0000 0000 000000
2013-08-29 02:26:27,0.07,0.58,0.00,26.69,31.07,33.20,5.97,29.67,1012.22,2035.02,3227.02,3166.67,3417.01,350.21,318.78,24.27,0000 0000 0000 0000 000000
2013-08-29 02:27:28,0.10,0.58,0.00,26.70,31.08,33.18,5.98,29.54,1012.22,2035.02,3226.60,3166.31,3416.90,349.96,318.55,24.28,0000 0000 0000 0000 000000
2013-08-29 02:28:28,0.14,0.58,0.00,26.70,31.09,33.18,5.83,29.58,1012.22,2035.01,3226.23,3166.12,3416.58,349.80,318.41,24.29,0000 0000 0000 0000 000000
2013-08-29 02:29:28,0.12,0.58,0.00,26.70,31.10,33.16,5.78,29.54,1012.23,2035.00,3226.08,3166.04,3416.26,349.31,318.21,24.29,0000 0000 0000 0000 000000
2013-08-29 02:30:28,0.07,0.58,0.00,26.70,31.10,33.20,5.84,29.50,1012.23,2035.01,3226.00,3166.01,3416.10,349.23,317.88,24.30,0000 0000 0000 0000 000000
2013-08-29 02:31:29,0.04,0.58,0.00,26.70,31.10,33.20,5.88,29.67,1012.25,2035.00,3225.76,3165.97,3416.03,350.00,318.78,24.30,0000 0000 0000 0000 000000
2013-08-29 02:32:29,0.06,0.58,0.00,26.70,31.10,33.20,5.97,29.58,1012.26,2035.00,3225.32,3165.85,3416.00,350.46,319.12,24.31,0000 0000 0000 0000 000000
2013-08-29 02:33:29,0.07,0.58,0.00,26.71,31.11,33.23,5.85,29.67,1012.28,2035.00,3225.11,3165.66,3415.97,349.82,318.61,24.31,0000 0000 0000 0000 000000
2013-08-29 02:34:29,0.09,0.58,0.00,26.72,31.12,33.23,5.71,29.58,1012.30,2035.00,3225.04,3165.31,3415.76,348.95,318.05,24.32,0000 0000 0000 0000 000000
2013-08-29 02:35:30,0.12,0.58,0.00,26.72,31.12,33.23,5.82,29.63,1012.27,2035.00,3224.94,3165.11,3415.32,350.98,319.93,24.33,0000 0000 0000 0000 000000
2013-08-29 02:36:30,0.10,0.58,0.00,26.72,31.12,33.23,5.78,29.54,1012.28,2035.00,3224.68,3165.04,3415.11,349.26,317.91,24.33,0000 0000 0000 0000 000000